Time,TemperatureF,DewpointF,PressureIn,WindDirection,WindDirectionDegrees,WindSpeedMPH,WindSpeedGustMPH,Humidity,HourlyPrecipIn,Conditions,Clouds,dailyrainin,SolarRadiationWatts/m^2,SoftwareType,DateUTC
2013-04-14 00:05:00,31.0,26.0,29.91,NE,55,0.0,-999.0,83,-99.99,,,0.02,0,weatherlink.com 1.10,2013-04-14 05:05:00,
2013-04-14 00:20:00,31.3,26.0,29.91,NE,55,0.0,-999.0,82,-99.99,,,0.00,0,weatherlink.com 1.10,2013-04-14 05:20:00,
2013-04-14 00:35:00,31.4,26.0,29.91,NE,55,0.0,-999.0,81,-99.99,,,0.00,0,weatherlink.com 1.10,2013-04-14 05:35:00,
2013-04-14 00:50:00,31.4,26.0,29.90,NE,55,0.0,-999.0,81,-99.99,,,0.00,0,weatherlink.com 1.10,2013-04-14 05:50:00,
2013-04-14 01:05:00,31.4,27.0,29.90,NE,55,0.0,-999.0,82,-99.99,,,0.00,0,weatherlink.com 1.10,2013-04-14 06:05:00,
2013-04-14 01:20:00,31.3,26.0,29.89,NE,55,0.0,-999.0,82,-99.99,,,0.00,0,weatherlink.com 1.10,2013-04-14 06:20:00,
2013-04-14 01:35:00,31.3,26.0,29.89,NE,55,0.0,-999.0,82,-99.99,,,0.00,0,weatherlink.com 1.10,2013-04-14 06:35:00,
2013-04-14 01:50:00,31.4,27.0,29.89,NE,55,0.0,-999.0,82,-99.99,,,0.00,0,weatherlink.com 1.10,2013-04-14 06:50:00,
2013-04-14 02:05:00,31.4,27.0,29.88,ENE,66,2.0,-999.0,83,-99.99,,,0.00,0,weatherlink.com 1.10,2013-04-14 07:05:00,
2013-04-14 02:20:00,31.4,27.0,29.86,NE,55,1.0,-999.0,82,-99.99,,,0.00,0,weatherlink.com 1.10,2013-04-14 07:20:00,
2013-04-14 02:35:00,31.2,26.0,29.85,ENE,59,0.0,-999.0,82,-99.99,,,0.00,0,weatherlink.com 1.10,2013-04-14 07:35:00,
2013-04-14 02:50:00,31.3,26.0,29.85,ENE,59,0.0,-999.0,82,-99.99,,,0.00,0,weatherlink.com 1.10,2013-04-14 07:50:00,
2013-04-14 03:05:00,31.4,27.0,29.85,ENE,59,0.0,-999.0,82,-99.99,,,0.00,0,weatherlink.com 1.10,2013-04-14 08:05:00,
2013-04-14 03:20:00,31.5,26.0,29.85,ENE,59,1.0,-999.0,81,-99.99,,,0.00,0,weatherlink.com 1.10,2013-04-14 08:20:00,
2013-04-14 03:35:00,31.5,26.0,29.85,ENE,59,0.0,-999.0,81,-99.99,,,0.00,0,weatherlink.com 1.10,2013-04-14 08:35:00,
2013-04-14 03:50:00,31.4,27.0,29.85,ENE,59,0.0,-999.0,82,-99.99,,,0.00,0,weatherlink.com 1.10,2013-04-14 08:50:00,
2013-04-14 04:05:00,31.4,27.0,29.85,ENE,61,0.0,-999.0,82,-99.99,,,0.00,0,weatherlink.com 1.10,2013-04-14 09:05:00,
2013-04-14 04:20:00,31.4,26.0,29.84,ENE,63,1.0,-999.0,81,-99.99,,,0.00,0,weatherlink.com 1.10,2013-04-14 09:20:00,
2013-04-14 04:35:00,31.2,26.0,29.84,ENE,78,0.0,-999.0,82,-99.99,,,0.00,0,weatherlink.com 1.10,2013-04-14 09:35:00,
2013-04-14 05:06:00,30.8,26.0,29.84,ENE,77,0.0,-999.0,82,-99.99,,,0.00,0,weatherlink.com 1.10,2013-04-14 10:06:00,
2013-04-14 05:21:00,30.6,26.0,29.84,East,85,0.0,-999.0,82,-99.99,,,0.01,0,weatherlink.com 1.10,2013-04-14 10:21:00,
2013-04-14 05:35:00,30.5,26.0,29.84,East,82,1.0,-999.0,82,-99.99,,,0.01,0,weatherlink.com 1.10,2013-04-14 10:35:00,
2013-04-14 06:36:00,29.6,26.0,29.82,ENE,76,1.0,-999.0,86,-99.99,,,0.03,0,weatherlink.com 1.10,2013-04-14 11:36:00,
2013-04-14 06:51:00,29.7,26.0,29.82,East,84,0.0,-999.0,86,-99.99,,,0.03,5,weatherlink.com 1.10,2013-04-14 11:51:00,
2013-04-14 07:07:00,29.7,26.0,29.81,East,84,2.0,-999.0,85,-99.99,,,0.03,14,weatherlink.com 1.10,2013-04-14 12:07:00,
2013-04-14 07:22:00,29.8,26.0,29.81,ENE,62,2.0,-999.0,86,-99.99,,,0.03,25,weatherlink.com 1.10,2013-04-14 12:22:00,
2013-04-14 07:37:00,29.7,26.0,29.79,ENE,65,1.0,-999.0,87,-99.99,,,0.03,39,weatherlink.com 1.10,2013-04-14 12:37:00,
2013-04-14 07:52:00,29.8,26.0,29.77,East,84,1.0,-999.0,87,-99.99,,,0.03,63,weatherlink.com 1.10,2013-04-14 12:52:00,
2013-04-14 08:07:00,30.0,27.0,29.77,ENE,69,4.0,-999.0,88,-99.99,,,0.03,83,weatherlink.com 1.10,2013-04-14 13:07:00,
2013-04-14 08:22:00,30.3,27.0,29.76,East,81,3.0,-999.0,88,-99.99,,,0.03,114,weatherlink.com 1.10,2013-04-14 13:22:00,
2013-04-14 08:37:00,30.6,27.0,29.75,ENE,73,1.0,-999.0,86,-99.99,,,0.03,113,weatherlink.com 1.10,2013-04-14 13:37:00,
2013-04-14 08:52:00,30.9,27.0,29.73,ENE,71,3.0,-999.0,84,-99.99,,,0.03,141,weatherlink.com 1.10,2013-04-14 13:52:00,
2013-04-14 09:08:00,31.4,27.0,29.73,East,101,0.0,-999.0,83,-99.99,,,0.03,127,weatherlink.com 1.10,2013-04-14 14:08:00,
2013-04-14 09:23:00,31.7,27.0,29.73,East,94,2.0,-999.0,81,-99.99,,,0.03,148,weatherlink.com 1.10,2013-04-14 14:23:00,
2013-04-14 09:37:00,32.0,27.0,29.71,ESE,118,2.0,-999.0,80,-99.99,,,0.03,127,weatherlink.com 1.10,2013-04-14 14:37:00,
2013-04-14 09:52:00,32.3,26.0,29.70,East,84,2.0,-999.0,78,-99.99,,,0.03,141,weatherlink.com 1.10,2013-04-14 14:52:00,
2013-04-14 10:08:00,32.4,27.0,29.69,ENE,70,2.0,-999.0,79,-99.99,,,0.03,153,weatherlink.com 1.10,2013-04-14 15:08:00,
2013-04-14 10:23:00,32.8,27.0,29.67,ENE,74,2.0,-999.0,79,-99.99,,,0.03,225,weatherlink.com 1.10,2013-04-14 15:23:00,
2013-04-14 10:38:00,32.5,28.0,29.66,East,88,2.0,-999.0,82,-99.99,,,0.03,218,weatherlink.com 1.10,2013-04-14 15:38:00,
2013-04-14 10:53:00,32.4,28.0,29.66,East,80,2.0,-999.0,83,-99.99,,,0.03,193,weatherlink.com 1.10,2013-04-14 15:53:00,
2013-04-14 11:09:00,32.5,28.0,29.66,East,80,3.0,-999.0,83,-99.99,,,0.03,167,weatherlink.com 1.10,2013-04-14 16:09:00,
2013-04-14 11:23:00,32.6,28.0,29.66,ENE,58,4.0,-999.0,84,-99.99,,,0.03,102,weatherlink.com 1.10,2013-04-14 16:23:00,
2013-04-14 11:39:00,32.6,29.0,29.67,ENE,68,5.0,-999.0,85,-99.99,,,0.03,179,weatherlink.com 1.10,2013-04-14 16:39:00,
2013-04-14 11:54:00,32.6,30.0,29.66,ENE,65,3.0,-999.0,88,-99.99,,,0.05,200,weatherlink.com 1.10,2013-04-14 16:54:00,
2013-04-14 12:09:00,32.4,30.0,29.66,NE,54,3.0,-999.0,90,-99.99,,,0.08,141,weatherlink.com 1.10,2013-04-14 17:09:00,
2013-04-14 12:24:00,32.2,30.0,29.65,ENE,71,3.0,-999.0,90,-99.99,,,0.09,149,weatherlink.com 1.10,2013-04-14 17:24:00,
2013-04-14 12:39:00,32.4,30.0,29.64,East,81,2.0,-999.0,91,-99.99,,,0.11,169,weatherlink.com 1.10,2013-04-14 17:39:00,
2013-04-14 12:54:00,32.6,30.0,29.62,ENE,66,6.0,-999.0,91,-99.99,,,0.13,255,weatherlink.com 1.10,2013-04-14 17:54:00,
2013-04-14 13:09:00,32.4,30.0,29.61,NE,42,6.0,-999.0,92,-99.99,,,0.13,113,weatherlink.com 1.10,2013-04-14 18:09:00,
2013-04-14 13:24:00,32.3,30.0,29.61,East,95,5.0,-999.0,92,-99.99,,,0.13,105,weatherlink.com 1.10,2013-04-14 18:24:00,
2013-04-14 13:40:00,32.4,30.0,29.60,ENE,77,4.0,-999.0,92,-99.99,,,0.14,127,weatherlink.com 1.10,2013-04-14 18:40:00,
2013-04-14 13:55:00,32.5,31.0,29.60,ENE,67,3.0,-999.0,92,-99.99,,,0.15,114,weatherlink.com 1.10,2013-04-14 18:55:00,
2013-04-14 14:10:00,32.7,31.0,29.57,ENE,66,6.0,-999.0,93,-99.99,,,0.16,153,weatherlink.com 1.10,2013-04-14 19:10:00,
2013-04-14 14:25:00,32.6,31.0,29.57,ENE,57,4.0,-999.0,93,-99.99,,,0.17,79,weatherlink.com 1.10,2013-04-14 19:25:00,
2013-04-14 14:40:00,32.7,31.0,29.57,East,81,2.0,-999.0,93,-99.99,,,0.17,123,weatherlink.com 1.10,2013-04-14 19:40:00,
2013-04-14 14:55:00,32.9,31.0,29.55,ENE,65,3.0,-999.0,93,-99.99,,,0.19,141,weatherlink.com 1.10,2013-04-14 19:55:00,
2013-04-14 15:10:00,32.8,31.0,29.53,East,84,2.0,-999.0,94,-99.99,,,0.20,125,weatherlink.com 1.10,2013-04-14 20:10:00,
2013-04-14 15:25:00,32.9,31.0,29.54,ENE,61,2.0,-999.0,94,-99.99,,,0.20,65,weatherlink.com 1.10,2013-04-14 20:25:00,
2013-04-14 15:40:00,32.7,31.0,29.52,ESE,119,1.0,-999.0,94,-99.99,,,0.20,60,weatherlink.com 1.10,2013-04-14 20:40:00,
2013-04-14 15:55:00,32.7,31.0,29.51,ENE,65,3.0,-999.0,94,-99.99,,,0.21,65,weatherlink.com 1.10,2013-04-14 20:55:00,
2013-04-14 16:10:00,32.7,31.0,29.51,ENE,61,4.0,-999.0,94,-99.99,,,0.21,81,weatherlink.com 1.10,2013-04-14 21:10:00,
2013-04-14 16:26:00,32.7,31.0,29.49,East,92,1.0,-999.0,94,-99.99,,,0.24,65,weatherlink.com 1.10,2013-04-14 21:26:00,
2013-04-14 16:40:00,32.8,31.0,29.48,ENE,58,4.0,-999.0,94,-99.99,,,0.27,95,weatherlink.com 1.10,2013-04-14 21:40:00,
2013-04-14 16:56:00,32.7,31.0,29.48,East,86,0.0,-999.0,94,-99.99,,,0.28,44,weatherlink.com 1.10,2013-04-14 21:56:00,
2013-04-14 17:10:00,32.7,31.0,29.48,ENE,69,2.0,-999.0,94,-99.99,,,0.29,44,weatherlink.com 1.10,2013-04-14 22:10:00,
2013-04-14 17:26:00,32.7,31.0,29.47,NE,56,4.0,-999.0,94,-99.99,,,0.33,44,weatherlink.com 1.10,2013-04-14 22:26:00,
2013-04-14 17:41:00,32.8,31.0,29.47,NE,55,3.0,-999.0,94,-99.99,,,0.34,44,weatherlink.com 1.10,2013-04-14 22:41:00,
2013-04-14 18:26:00,32.7,31.0,29.47,East,79,1.0,-999.0,94,-99.99,,,0.41,12,weatherlink.com 1.10,2013-04-14 23:26:00,
2013-04-14 18:42:00,32.7,31.0,29.45,ENE,57,5.0,-999.0,94,-99.99,,,0.42,16,weatherlink.com 1.10,2013-04-14 23:42:00,
2013-04-14 18:57:00,32.8,31.0,29.46,East,83,1.0,-999.0,94,-99.99,,,0.42,9,weatherlink.com 1.10,2013-04-14 23:57:00,
2013-04-14 19:12:00,32.8,32.0,29.46,ESE,103,1.0,-999.0,95,-99.99,,,0.42,11,weatherlink.com 1.10,2013-04-15 00:12:00,
2013-04-14 19:27:00,32.8,32.0,29.45,East,82,2.0,-999.0,95,-99.99,,,0.42,5,weatherlink.com 1.10,2013-04-15 00:27:00,
2013-04-14 19:41:00,32.9,32.0,29.45,East,87,2.0,-999.0,95,-99.99,,,0.42,0,weatherlink.com 1.10,2013-04-15 00:41:00,
2013-04-14 19:57:00,32.9,32.0,29.45,ENE,65,2.0,-999.0,95,-99.99,,,0.42,0,weatherlink.com 1.10,2013-04-15 00:57:00,
2013-04-14 20:12:00,33.0,32.0,29.44,East,81,2.0,-999.0,95,-99.99,,,0.42,0,weatherlink.com 1.10,2013-04-15 01:12:00,
2013-04-14 20:27:00,33.1,32.0,29.45,ENE,73,3.0,-999.0,95,-99.99,,,0.42,0,weatherlink.com 1.10,2013-04-15 01:27:00,
2013-04-14 20:42:00,33.1,32.0,29.45,ESE,111,4.0,-999.0,95,-99.99,,,0.42,0,weatherlink.com 1.10,2013-04-15 01:42:00,
2013-04-14 20:57:00,33.1,32.0,29.45,ENE,66,4.0,-999.0,95,-99.99,,,0.42,0,weatherlink.com 1.10,2013-04-15 01:57:00,
2013-04-14 21:27:00,33.2,32.0,29.47,SSE,154,0.0,-999.0,95,-99.99,,,0.43,0,weatherlink.com 1.10,2013-04-15 02:27:00,
2013-04-14 21:43:00,33.3,32.0,29.47,SE,125,1.0,-999.0,95,-99.99,,,0.43,0,weatherlink.com 1.10,2013-04-15 02:43:00,
2013-04-14 21:57:00,33.4,32.0,29.47,South,178,0.0,-999.0,95,-99.99,,,0.43,0,weatherlink.com 1.10,2013-04-15 02:57:00,
2013-04-14 22:13:00,33.5,32.0,29.46,ENE,76,0.0,-999.0,95,-99.99,,,0.43,0,weatherlink.com 1.10,2013-04-15 03:13:00,
2013-04-14 22:28:00,33.6,33.0,29.47,SE,135,0.0,-999.0,96,-99.99,,,0.43,0,weatherlink.com 1.10,2013-04-15 03:28:00,
2013-04-14 22:43:00,33.9,33.0,29.47,SSE,163,4.0,-999.0,96,-99.99,,,0.43,0,weatherlink.com 1.10,2013-04-15 03:43:00,
2013-04-14 22:58:00,34.6,34.0,29.46,South,189,2.0,-999.0,96,-99.99,,,0.43,0,weatherlink.com 1.10,2013-04-15 03:58:00,
2013-04-14 23:14:00,34.8,34.0,29.46,South,171,4.0,-999.0,96,-99.99,,,0.43,0,weatherlink.com 1.10,2013-04-15 04:14:00,
2013-04-14 23:28:00,35.0,34.0,29.46,South,187,2.0,-999.0,96,-99.99,,,0.43,0,weatherlink.com 1.10,2013-04-15 04:28:00,
2013-04-14 23:43:00,35.2,34.0,29.46,South,180,3.0,-999.0,96,-99.99,,,0.43,0,weatherlink.com 1.10,2013-04-15 04:43:00,
2013-04-14 23:58:00,35.6,34.0,29.46,SSW,201,3.0,-999.0,94,-99.99,,,0.43,0,weatherlink.com 1.10,2013-04-15 04:58:00,